Location: Newark
(21.1200°N, 73.4000°E)
Time: 18:05:21
(UTC+00:00)

Explorer 11/Cluster Stage 4 - Pass Details

Date: 28 January 2020
Orbit: 467 x 1259 km, 28.8° (Epoch: 23 February)

Event Time Altitude Azimuth Distance (km) Brightness Sun altitude
Rises 13:20:51 0° 288° (WNW) 4,041 11.2 -6.8°
Reaches altitude 10° 13:23:55 10° 286° (WNW) 2,988 10.5 -7.5°
Maximum altitude 13:31:10 63° 207° (SSW) 1,071 7.5 -9.1°
Drops below altitude 10° 13:37:01 10° 127° (SE) 2,426 8.7 -10.4°
Enters shadow 13:39:06 - 123° (ESE) 3,166 9.3 -10.9°
Sets 13:39:18 0° 123° (ESE) 3,238 - -11.0°
